Year,Month,Day,Hour,Minute,Value (Times are PST for temperature in C)
2013,08,04,00,00,14.60
2013,08,04,00,01,14.60
2013,08,04,00,02,14.60
2013,08,04,00,03,14.60
2013,08,04,00,04,14.60
2013,08,04,00,05,14.50
2013,08,04,00,06,14.50
2013,08,04,00,07,14.50
2013,08,04,00,08,14.40
2013,08,04,00,09,14.40
2013,08,04,00,10,14.40
2013,08,04,00,11,14.40
2013,08,04,00,12,14.30
2013,08,04,00,13,14.30
2013,08,04,00,14,14.30
2013,08,04,00,15,14.30
2013,08,04,00,16,14.30
2013,08,04,00,17,14.30
2013,08,04,00,18,14.30
2013,08,04,00,19,14.30
2013,08,04,00,20,14.30
2013,08,04,00,21,14.30
2013,08,04,00,22,14.30
2013,08,04,00,23,14.30
2013,08,04,00,24,14.30
2013,08,04,00,25,14.30
2013,08,04,00,26,14.30
2013,08,04,00,27,14.30
2013,08,04,00,28,14.30
2013,08,04,00,29,14.30
2013,08,04,00,30,14.30
2013,08,04,00,31,14.30
2013,08,04,00,32,14.30
2013,08,04,00,33,14.30
2013,08,04,00,34,14.30
2013,08,04,00,35,14.30
2013,08,04,00,36,14.30
2013,08,04,00,37,14.30
2013,08,04,00,38,14.30
2013,08,04,00,39,14.30
2013,08,04,00,40,14.30
2013,08,04,00,41,14.30
2013,08,04,00,42,14.30
2013,08,04,00,43,14.30
2013,08,04,00,44,14.30
2013,08,04,00,45,14.30
2013,08,04,00,46,14.30
2013,08,04,00,47,14.30
2013,08,04,00,48,14.30
2013,08,04,00,49,14.30
2013,08,04,00,50,14.30
2013,08,04,00,51,14.30
2013,08,04,00,52,14.30
2013,08,04,00,53,14.30
2013,08,04,00,54,14.30
2013,08,04,00,55,14.20
2013,08,04,00,56,14.20
2013,08,04,00,57,14.20
2013,08,04,00,58,14.20
2013,08,04,00,59,14.20
2013,08,04,01,00,14.20
2013,08,04,01,01,14.20
2013,08,04,01,02,14.20
2013,08,04,01,03,14.10
2013,08,04,01,04,14.10
2013,08,04,01,05,14.10
2013,08,04,01,06,14.10
2013,08,04,01,07,14.00
2013,08,04,01,08,14.00
2013,08,04,01,09,14.00
2013,08,04,01,10,13.90
2013,08,04,01,11,13.90
2013,08,04,01,12,13.90
2013,08,04,01,13,13.90
2013,08,04,01,14,13.90
2013,08,04,01,15,14.00
2013,08,04,01,16,13.90
2013,08,04,01,17,13.90
2013,08,04,01,18,13.90
2013,08,04,01,19,13.90
2013,08,04,01,20,13.90
2013,08,04,01,21,14.00
2013,08,04,01,22,14.00
2013,08,04,01,23,13.90
2013,08,04,01,24,13.90
2013,08,04,01,25,13.90
2013,08,04,01,26,13.90
2013,08,04,01,27,13.90
2013,08,04,01,28,13.90
2013,08,04,01,29,13.90
2013,08,04,01,30,13.90
2013,08,04,01,31,13.90
2013,08,04,01,32,13.90
2013,08,04,01,33,13.90
2013,08,04,01,34,13.90
2013,08,04,01,35,13.90
2013,08,04,01,36,13.90
2013,08,04,01,37,13.90
2013,08,04,01,38,13.90
2013,08,04,01,39,13.90
2013,08,04,01,40,13.90
2013,08,04,01,41,13.90
2013,08,04,01,42,13.90
2013,08,04,01,43,13.90
2013,08,04,01,44,13.90
2013,08,04,01,45,13.90
2013,08,04,01,46,13.90
2013,08,04,01,47,13.90
2013,08,04,01,48,13.90
2013,08,04,01,49,13.90
2013,08,04,01,50,13.90
2013,08,04,01,51,13.90
2013,08,04,01,52,13.90
2013,08,04,01,53,13.90
2013,08,04,01,54,13.90
2013,08,04,01,55,13.80
2013,08,04,01,56,13.80
2013,08,04,01,57,13.80
2013,08,04,01,58,13.80
2013,08,04,01,59,13.80
2013,08,04,02,00,13.80
2013,08,04,02,01,13.80
2013,08,04,02,02,13.80
2013,08,04,02,03,13.80
2013,08,04,02,04,13.80
2013,08,04,02,05,13.80
2013,08,04,02,06,13.80
2013,08,04,02,07,13.80
2013,08,04,02,08,13.80
2013,08,04,02,09,13.80
2013,08,04,02,10,13.80
2013,08,04,02,11,13.80
2013,08,04,02,12,13.80
2013,08,04,02,13,13.80
2013,08,04,02,14,13.80
2013,08,04,02,15,13.80
2013,08,04,02,16,13.80
2013,08,04,02,17,13.80
2013,08,04,02,18,13.80
2013,08,04,02,19,13.80
2013,08,04,02,20,13.80
2013,08,04,02,21,13.80
2013,08,04,02,22,13.80
2013,08,04,02,23,13.80
2013,08,04,02,24,13.80
2013,08,04,02,25,13.80
2013,08,04,02,26,13.80
2013,08,04,02,27,13.80
2013,08,04,02,28,13.80
2013,08,04,02,29,13.80
2013,08,04,02,30,13.80
2013,08,04,02,31,13.80
2013,08,04,02,32,13.80
2013,08,04,02,33,13.80
2013,08,04,02,34,13.80
2013,08,04,02,35,13.80
2013,08,04,02,36,13.80
2013,08,04,02,37,13.80
2013,08,04,02,38,13.80
2013,08,04,02,39,13.80
2013,08,04,02,40,13.80
2013,08,04,02,41,13.80
2013,08,04,02,42,13.80
2013,08,04,02,43,13.80
2013,08,04,02,44,13.80
2013,08,04,02,45,13.80
2013,08,04,02,46,13.80
2013,08,04,02,47,13.80
2013,08,04,02,48,13.80
2013,08,04,02,49,13.80
2013,08,04,02,50,13.80
2013,08,04,02,51,13.80
2013,08,04,02,52,13.80
2013,08,04,02,53,13.80
2013,08,04,02,54,13.80
2013,08,04,02,55,13.80
2013,08,04,02,56,13.80
2013,08,04,02,57,13.80
2013,08,04,02,58,13.80
2013,08,04,02,59,13.80
2013,08,04,03,00,13.80
2013,08,04,03,01,13.80
2013,08,04,03,02,13.80
2013,08,04,03,03,13.80
2013,08,04,03,04,13.80
2013,08,04,03,05,13.80
2013,08,04,03,06,13.80
2013,08,04,03,07,13.80
2013,08,04,03,08,13.80
2013,08,04,03,09,13.80
2013,08,04,03,10,13.80
2013,08,04,03,11,13.80
2013,08,04,03,12,13.80
2013,08,04,03,13,13.70
2013,08,04,03,14,13.70
2013,08,04,03,15,13.70
2013,08,04,03,16,13.60
2013,08,04,03,17,13.60
2013,08,04,03,18,13.60
2013,08,04,03,19,13.60
2013,08,04,03,20,13.60
2013,08,04,03,21,13.60
2013,08,04,03,22,13.60
2013,08,04,03,23,13.60
2013,08,04,03,24,13.60
2013,08,04,03,25,13.60
2013,08,04,03,26,13.60
2013,08,04,03,27,13.60
2013,08,04,03,28,13.60
2013,08,04,03,29,13.60
2013,08,04,03,30,13.60
2013,08,04,03,31,13.60
2013,08,04,03,32,13.60
2013,08,04,03,33,13.60
2013,08,04,03,34,13.60
2013,08,04,03,35,13.60
2013,08,04,03,36,13.60
2013,08,04,03,37,13.60
2013,08,04,03,38,13.60
2013,08,04,03,39,13.60
2013,08,04,03,40,13.60
2013,08,04,03,41,13.60
2013,08,04,03,42,13.60
2013,08,04,03,43,13.70
2013,08,04,03,44,13.70
2013,08,04,03,45,13.70
2013,08,04,03,46,13.70
2013,08,04,03,47,13.70
2013,08,04,03,48,13.70
2013,08,04,03,49,13.70
2013,08,04,03,50,13.70
2013,08,04,03,51,13.70
2013,08,04,03,52,13.70
2013,08,04,03,53,13.70
2013,08,04,03,54,13.70
2013,08,04,03,55,13.70
2013,08,04,03,56,13.70
2013,08,04,03,57,13.70
2013,08,04,03,58,13.70
2013,08,04,03,59,13.70
2013,08,04,04,00,13.70
2013,08,04,04,01,13.70
2013,08,04,04,02,13.60
2013,08,04,04,03,13.70
2013,08,04,04,04,13.70
2013,08,04,04,05,13.70
2013,08,04,04,06,13.70
2013,08,04,04,07,13.70
2013,08,04,04,08,13.60
2013,08,04,04,09,13.70
2013,08,04,04,10,13.70
2013,08,04,04,11,13.70
2013,08,04,04,12,13.70
2013,08,04,04,13,13.70
2013,08,04,04,14,13.70
2013,08,04,04,15,13.70
2013,08,04,04,16,13.70
2013,08,04,04,17,13.70
2013,08,04,04,18,13.70
2013,08,04,04,19,13.70
2013,08,04,04,20,13.70
2013,08,04,04,21,13.60
2013,08,04,04,22,13.60
2013,08,04,04,23,13.60
2013,08,04,04,24,13.60
2013,08,04,04,25,13.60
2013,08,04,04,26,13.60
2013,08,04,04,27,13.60
2013,08,04,04,28,13.50
2013,08,04,04,29,13.50
2013,08,04,04,30,13.50
2013,08,04,04,31,13.50
2013,08,04,04,32,13.50
2013,08,04,04,33,13.50
2013,08,04,04,34,13.40
2013,08,04,04,35,13.40
2013,08,04,04,36,13.40
2013,08,04,04,37,13.40
2013,08,04,04,38,13.40
2013,08,04,04,39,13.40
2013,08,04,04,40,13.40
2013,08,04,04,41,13.40
2013,08,04,04,42,13.40
2013,08,04,04,43,13.40
2013,08,04,04,44,13.40
2013,08,04,04,45,13.40
2013,08,04,04,46,13.40
2013,08,04,04,47,13.40
2013,08,04,04,48,13.40
2013,08,04,04,49,13.40
2013,08,04,04,50,13.30
2013,08,04,04,51,13.30
2013,08,04,04,52,13.30
2013,08,04,04,53,13.30
2013,08,04,04,54,13.30
2013,08,04,04,55,13.30
2013,08,04,04,56,13.30
2013,08,04,04,57,13.30
2013,08,04,04,58,13.30
2013,08,04,04,59,13.30
2013,08,04,05,00,13.30
2013,08,04,05,01,13.30
2013,08,04,05,02,13.20
2013,08,04,05,03,13.20
2013,08,04,05,04,13.20
2013,08,04,05,05,13.20
2013,08,04,05,06,13.20
2013,08,04,05,07,13.20
2013,08,04,05,08,13.20
2013,08,04,05,09,13.20
2013,08,04,05,10,13.20
2013,08,04,05,11,13.20
2013,08,04,05,12,13.20
2013,08,04,05,13,13.20
2013,08,04,05,14,13.20
2013,08,04,05,15,13.20
2013,08,04,05,16,13.20
2013,08,04,05,17,13.20
2013,08,04,05,18,13.20
2013,08,04,05,19,13.20
2013,08,04,05,20,13.20
2013,08,04,05,21,13.10
2013,08,04,05,22,13.10
2013,08,04,05,23,13.10
2013,08,04,05,24,13.10
2013,08,04,05,25,13.10
2013,08,04,05,26,13.10
2013,08,04,05,27,13.20
2013,08,04,05,28,13.20
2013,08,04,05,29,13.20
2013,08,04,05,30,13.20
2013,08,04,05,31,13.20
2013,08,04,05,32,13.20
2013,08,04,05,33,13.20
2013,08,04,05,34,13.20
2013,08,04,05,35,13.20
2013,08,04,05,36,13.30
2013,08,04,05,37,13.20
2013,08,04,05,38,13.20
2013,08,04,05,39,13.20
2013,08,04,05,40,13.20
2013,08,04,05,41,13.20
2013,08,04,05,42,13.10
2013,08,04,05,43,13.10
2013,08,04,05,44,13.10
2013,08,04,05,45,13.10
2013,08,04,05,46,13.10
2013,08,04,05,47,13.10
2013,08,04,05,48,13.10
2013,08,04,05,49,13.10
2013,08,04,05,50,13.10
2013,08,04,05,51,13.10
2013,08,04,05,52,13.10
2013,08,04,05,53,13.10
2013,08,04,05,54,13.10
2013,08,04,05,55,13.10
2013,08,04,05,56,13.10
2013,08,04,05,57,13.10
2013,08,04,05,58,13.10
2013,08,04,05,59,13.10
2013,08,04,06,00,13.10
2013,08,04,06,01,13.10
2013,08,04,06,02,13.10
2013,08,04,06,03,13.10
2013,08,04,06,04,13.10
2013,08,04,06,05,13.10
2013,08,04,06,06,13.10
2013,08,04,06,07,13.00
2013,08,04,06,08,13.00
2013,08,04,06,09,13.00
2013,08,04,06,10,13.00
2013,08,04,06,11,13.00
2013,08,04,06,12,13.00
2013,08,04,06,13,13.00
2013,08,04,06,14,13.00
2013,08,04,06,15,13.00
2013,08,04,06,16,13.00
2013,08,04,06,17,13.00
2013,08,04,06,18,13.00
2013,08,04,06,19,13.00
2013,08,04,06,20,13.10
2013,08,04,06,21,13.10
2013,08,04,06,22,13.10
2013,08,04,06,23,13.10
2013,08,04,06,24,13.10
2013,08,04,06,25,13.10
2013,08,04,06,26,13.10
2013,08,04,06,27,13.10
2013,08,04,06,28,13.10
2013,08,04,06,29,13.10
2013,08,04,06,30,13.20
2013,08,04,06,31,13.20
2013,08,04,06,32,13.30
2013,08,04,06,33,13.30
2013,08,04,06,34,13.30
2013,08,04,06,35,13.30
2013,08,04,06,36,13.40
2013,08,04,06,37,13.40
2013,08,04,06,38,13.30
2013,08,04,06,39,13.30
2013,08,04,06,40,13.30
2013,08,04,06,41,13.30
2013,08,04,06,42,13.30
2013,08,04,06,43,13.30
2013,08,04,06,44,13.30
2013,08,04,06,45,13.30
2013,08,04,06,46,13.40
2013,08,04,06,47,13.40
2013,08,04,06,48,13.40
2013,08,04,06,49,13.40
2013,08,04,06,50,13.40
2013,08,04,06,51,13.40
2013,08,04,06,52,13.40
2013,08,04,06,53,13.50
2013,08,04,06,54,13.50
2013,08,04,06,55,13.50
2013,08,04,06,56,13.50
2013,08,04,06,57,13.60
2013,08,04,06,58,13.70
2013,08,04,06,59,13.70
2013,08,04,07,00,13.80
2013,08,04,07,01,13.80
2013,08,04,07,02,13.90
2013,08,04,07,03,14.00
2013,08,04,07,04,14.00
2013,08,04,07,05,14.10
2013,08,04,07,06,14.10
2013,08,04,07,07,14.10
2013,08,04,07,08,14.10
2013,08,04,07,09,14.10
2013,08,04,07,10,14.20
2013,08,04,07,11,14.20
2013,08,04,07,12,14.20
2013,08,04,07,13,14.30
2013,08,04,07,14,14.30
2013,08,04,07,15,14.40
2013,08,04,07,16,14.40
2013,08,04,07,17,14.50
2013,08,04,07,18,14.50
2013,08,04,07,19,14.60
2013,08,04,07,20,14.60
2013,08,04,07,21,14.60
2013,08,04,07,22,14.60
2013,08,04,07,23,14.60
2013,08,04,07,24,14.60
2013,08,04,07,25,14.70
2013,08,04,07,26,14.70
2013,08,04,07,27,14.70
2013,08,04,07,28,14.70
2013,08,04,07,29,14.70
2013,08,04,07,30,14.70
2013,08,04,07,31,14.70
2013,08,04,07,32,14.70
2013,08,04,07,33,14.70
2013,08,04,07,34,14.70
2013,08,04,07,35,14.70
2013,08,04,07,36,14.70
2013,08,04,07,37,14.70
2013,08,04,07,38,14.80
2013,08,04,07,39,14.80
2013,08,04,07,40,14.80
2013,08,04,07,41,14.80
2013,08,04,07,42,14.80
2013,08,04,07,43,14.90
2013,08,04,07,44,14.90
2013,08,04,07,45,15.00
2013,08,04,07,46,15.00
2013,08,04,07,47,15.10
2013,08,04,07,48,15.20
2013,08,04,07,49,15.20
2013,08,04,07,50,15.30
2013,08,04,07,51,15.40
2013,08,04,07,52,15.50
2013,08,04,07,53,15.50
2013,08,04,07,54,15.60
2013,08,04,07,55,15.60
2013,08,04,07,56,15.70
2013,08,04,07,57,15.70
2013,08,04,07,58,15.80
2013,08,04,07,59,15.80
2013,08,04,08,00,15.80
2013,08,04,08,01,15.80
2013,08,04,08,02,15.90
2013,08,04,08,03,15.90
2013,08,04,08,04,16.00
2013,08,04,08,05,16.10
2013,08,04,08,06,16.10
2013,08,04,08,07,16.20
2013,08,04,08,08,16.20
2013,08,04,08,09,16.30
2013,08,04,08,10,16.30
2013,08,04,08,11,16.30
2013,08,04,08,12,16.40
2013,08,04,08,13,16.40
2013,08,04,08,14,16.40
2013,08,04,08,15,16.50
2013,08,04,08,16,16.60
2013,08,04,08,17,16.60
2013,08,04,08,18,16.70
2013,08,04,08,19,16.80
2013,08,04,08,20,16.90
2013,08,04,08,21,17.00
2013,08,04,08,22,17.10
2013,08,04,08,23,17.20
2013,08,04,08,24,17.30
2013,08,04,08,25,17.40
2013,08,04,08,26,17.50
2013,08,04,08,27,17.60
2013,08,04,08,28,17.70
2013,08,04,08,29,17.80
2013,08,04,08,30,17.80
2013,08,04,08,31,17.90
2013,08,04,08,32,17.90
2013,08,04,08,33,17.90
2013,08,04,08,34,17.90
2013,08,04,08,35,17.90
2013,08,04,08,36,17.90
2013,08,04,08,37,18.00
2013,08,04,08,38,18.00
2013,08,04,08,39,18.00
2013,08,04,08,40,18.10
2013,08,04,08,41,18.10
2013,08,04,08,42,18.20
2013,08,04,08,43,18.20
2013,08,04,08,44,18.20
2013,08,04,08,45,18.30
2013,08,04,08,46,18.40
2013,08,04,08,47,18.40
2013,08,04,08,48,18.50
2013,08,04,08,49,18.60
2013,08,04,08,50,18.60
2013,08,04,08,51,18.60
2013,08,04,08,52,18.70
2013,08,04,08,53,18.70
2013,08,04,08,54,18.70
2013,08,04,08,55,18.70
2013,08,04,08,56,18.70
2013,08,04,08,57,18.70
2013,08,04,08,58,18.70
2013,08,04,08,59,18.70
2013,08,04,09,00,18.70
2013,08,04,09,01,18.70
2013,08,04,09,02,18.70
2013,08,04,09,03,18.80
2013,08,04,09,04,18.90
2013,08,04,09,05,18.90
2013,08,04,09,06,19.00
2013,08,04,09,07,19.00
2013,08,04,09,08,19.00
2013,08,04,09,09,19.10
2013,08,04,09,10,19.10
2013,08,04,09,11,19.20
2013,08,04,09,12,19.20
2013,08,04,09,13,19.30
2013,08,04,09,14,19.30
2013,08,04,09,15,19.30
2013,08,04,09,16,19.30
2013,08,04,09,17,19.20
2013,08,04,09,18,19.20
2013,08,04,09,19,19.20
2013,08,04,09,20,19.30
2013,08,04,09,21,19.30
2013,08,04,09,22,19.30
2013,08,04,09,23,19.30
2013,08,04,09,24,19.40
2013,08,04,09,25,19.50
2013,08,04,09,26,19.50
2013,08,04,09,27,19.60
2013,08,04,09,28,19.70
2013,08,04,09,29,19.80
2013,08,04,09,30,19.80
2013,08,04,09,31,19.90
2013,08,04,09,32,20.00
2013,08,04,09,33,20.00
2013,08,04,09,34,20.10
2013,08,04,09,35,20.20
2013,08,04,09,36,20.20
2013,08,04,09,37,20.20
2013,08,04,09,38,20.30
2013,08,04,09,39,20.30
2013,08,04,09,40,20.40
2013,08,04,09,41,20.40
2013,08,04,09,42,20.50
2013,08,04,09,43,20.60
2013,08,04,09,44,20.70
2013,08,04,09,45,20.80
2013,08,04,09,46,20.80
2013,08,04,09,47,20.80
2013,08,04,09,48,20.90
2013,08,04,09,49,20.90
2013,08,04,09,50,20.90
2013,08,04,09,51,20.80
2013,08,04,09,52,20.80
2013,08,04,09,53,20.90
2013,08,04,09,54,20.90
2013,08,04,09,55,20.90
2013,08,04,09,56,21.00
2013,08,04,09,57,21.10
2013,08,04,09,58,21.10
2013,08,04,09,59,21.10
2013,08,04,10,00,21.20
2013,08,04,10,01,21.20
2013,08,04,10,02,21.20
2013,08,04,10,03,21.20
2013,08,04,10,04,21.20
2013,08,04,10,05,21.20
2013,08,04,10,06,21.20
2013,08,04,10,07,21.20
2013,08,04,10,08,21.20
2013,08,04,10,09,21.20
2013,08,04,10,10,21.20
2013,08,04,10,11,21.20
2013,08,04,10,12,21.10
2013,08,04,10,13,21.10
2013,08,04,10,14,21.10
2013,08,04,10,15,21.10
2013,08,04,10,16,21.00
2013,08,04,10,17,21.10
2013,08,04,10,18,21.10
2013,08,04,10,19,21.10
2013,08,04,10,20,21.20
2013,08,04,10,21,21.20
2013,08,04,10,22,21.20
2013,08,04,10,23,21.20
2013,08,04,10,24,21.30
2013,08,04,10,25,21.40
2013,08,04,10,26,21.40
2013,08,04,10,27,21.60
2013,08,04,10,28,21.70
2013,08,04,10,29,21.80
2013,08,04,10,30,21.90
2013,08,04,10,31,21.90
2013,08,04,10,32,22.00
2013,08,04,10,33,21.90
2013,08,04,10,34,21.90
2013,08,04,10,35,21.80
2013,08,04,10,36,21.80
2013,08,04,10,37,21.80
2013,08,04,10,38,21.70
2013,08,04,10,39,21.70
2013,08,04,10,40,21.70
2013,08,04,10,41,21.60
2013,08,04,10,42,21.60
2013,08,04,10,43,21.60
2013,08,04,10,44,21.60
2013,08,04,10,45,21.60
2013,08,04,10,46,21.60
2013,08,04,10,47,21.70
2013,08,04,10,48,21.70
2013,08,04,10,49,21.70
2013,08,04,10,50,21.70
2013,08,04,10,51,21.70
2013,08,04,10,52,21.70
2013,08,04,10,53,21.70
2013,08,04,10,54,21.60
2013,08,04,10,55,21.50
2013,08,04,10,56,21.40
2013,08,04,10,57,21.40
2013,08,04,10,58,21.30
2013,08,04,10,59,21.30
2013,08,04,11,00,21.30
2013,08,04,11,01,21.30
2013,08,04,11,02,21.40
2013,08,04,11,03,21.40
2013,08,04,11,04,21.40
2013,08,04,11,05,21.50
2013,08,04,11,06,21.50
2013,08,04,11,07,21.40
2013,08,04,11,08,21.40
2013,08,04,11,09,21.40
2013,08,04,11,10,21.40
2013,08,04,11,11,21.40
2013,08,04,11,12,21.40
2013,08,04,11,13,21.50
2013,08,04,11,14,21.50
2013,08,04,11,15,21.60
2013,08,04,11,16,21.60
2013,08,04,11,17,21.60
2013,08,04,11,18,21.60
2013,08,04,11,19,21.60
2013,08,04,11,20,21.60
2013,08,04,11,21,21.60
2013,08,04,11,22,21.70
2013,08,04,11,23,21.80
2013,08,04,11,24,21.80
2013,08,04,11,25,21.90
2013,08,04,11,26,22.00
2013,08,04,11,27,22.10
2013,08,04,11,28,22.10
2013,08,04,11,29,22.00
2013,08,04,11,30,22.00
2013,08,04,11,31,21.90
2013,08,04,11,32,21.80
2013,08,04,11,33,21.70
2013,08,04,11,34,21.70
2013,08,04,11,35,21.80
2013,08,04,11,36,21.90
2013,08,04,11,37,21.90
2013,08,04,11,38,22.00
2013,08,04,11,39,22.00
2013,08,04,11,40,22.00
2013,08,04,11,41,21.90
2013,08,04,11,42,21.90
2013,08,04,11,43,21.90
2013,08,04,11,44,21.90
2013,08,04,11,45,21.90
2013,08,04,11,46,22.00
2013,08,04,11,47,22.00
2013,08,04,11,48,22.00
2013,08,04,11,49,22.10
2013,08,04,11,50,22.10
2013,08,04,11,51,22.20
2013,08,04,11,52,22.30
2013,08,04,11,53,22.50
2013,08,04,11,54,22.50
2013,08,04,11,55,22.60
2013,08,04,11,56,22.60
2013,08,04,11,57,22.60
2013,08,04,11,58,22.60
2013,08,04,11,59,22.60
2013,08,04,12,00,22.70
2013,08,04,12,01,22.80
2013,08,04,12,02,22.90
2013,08,04,12,03,22.90
2013,08,04,12,04,22.90
2013,08,04,12,05,22.90
2013,08,04,12,06,23.00
2013,08,04,12,07,23.10
2013,08,04,12,08,23.10
2013,08,04,12,09,23.20
2013,08,04,12,10,23.20
2013,08,04,12,11,23.20
2013,08,04,12,12,23.30
2013,08,04,12,13,23.20
2013,08,04,12,14,23.20
2013,08,04,12,15,23.20
2013,08,04,12,16,23.20
2013,08,04,12,17,23.20
2013,08,04,12,18,23.20
2013,08,04,12,19,23.20
2013,08,04,12,20,23.20
2013,08,04,12,21,23.10
2013,08,04,12,22,23.10
2013,08,04,12,23,23.00
2013,08,04,12,24,22.90
2013,08,04,12,25,22.80
2013,08,04,12,26,22.80
2013,08,04,12,27,22.80
2013,08,04,12,28,22.90
2013,08,04,12,29,23.00
2013,08,04,12,30,23.10
2013,08,04,12,31,23.10
2013,08,04,12,32,23.10
2013,08,04,12,33,23.20
2013,08,04,12,34,23.20
2013,08,04,12,35,23.30
2013,08,04,12,36,23.30
2013,08,04,12,37,23.20
2013,08,04,12,38,23.20
2013,08,04,12,39,23.10
2013,08,04,12,40,23.00
2013,08,04,12,41,23.00
2013,08,04,12,42,22.90
2013,08,04,12,43,22.90
2013,08,04,12,44,22.90
2013,08,04,12,45,23.00
2013,08,04,12,46,23.00
2013,08,04,12,47,23.00
2013,08,04,12,48,22.90
2013,08,04,12,49,22.90
2013,08,04,12,50,22.80
2013,08,04,12,51,22.80
2013,08,04,12,52,22.70
2013,08,04,12,53,22.70
2013,08,04,12,54,22.60
2013,08,04,12,55,22.60
2013,08,04,12,56,22.50
2013,08,04,12,57,22.40
2013,08,04,12,58,22.30
2013,08,04,12,59,22.30
2013,08,04,13,00,22.30
2013,08,04,13,01,22.30
2013,08,04,13,02,22.40
2013,08,04,13,03,22.40
2013,08,04,13,04,22.40
2013,08,04,13,05,22.50
2013,08,04,13,06,22.50
2013,08,04,13,07,22.40
2013,08,04,13,08,22.40
2013,08,04,13,09,22.40
2013,08,04,13,10,22.50
2013,08,04,13,11,22.60
2013,08,04,13,12,22.60
2013,08,04,13,13,22.70
2013,08,04,13,14,22.70
2013,08,04,13,15,22.60
2013,08,04,13,16,22.60
2013,08,04,13,17,22.50
2013,08,04,13,18,22.50
2013,08,04,13,19,22.50
2013,08,04,13,20,22.50
2013,08,04,13,21,22.40
2013,08,04,13,22,22.30
2013,08,04,13,23,22.30
2013,08,04,13,24,22.40
2013,08,04,13,25,22.40
2013,08,04,13,26,22.30
2013,08,04,13,27,22.30
2013,08,04,13,28,22.30
2013,08,04,13,29,22.10
2013,08,04,13,30,21.90
2013,08,04,13,31,21.70
2013,08,04,13,32,21.70
2013,08,04,13,33,21.60
2013,08,04,13,34,21.60
2013,08,04,13,35,21.60
2013,08,04,13,36,21.60
2013,08,04,13,37,21.60
2013,08,04,13,38,21.70
2013,08,04,13,39,21.70
2013,08,04,13,40,21.70
2013,08,04,13,41,21.70
2013,08,04,13,42,21.80
2013,08,04,13,43,21.80
2013,08,04,13,44,21.90
2013,08,04,13,45,22.00
2013,08,04,13,46,22.10
2013,08,04,13,47,22.10
2013,08,04,13,48,22.10
2013,08,04,13,49,22.10
2013,08,04,13,50,22.20
2013,08,04,13,51,22.20
2013,08,04,13,52,22.20
2013,08,04,13,53,22.20
2013,08,04,13,54,22.20
2013,08,04,13,55,22.20
2013,08,04,13,56,22.20
2013,08,04,13,57,22.30
2013,08,04,13,58,22.30
2013,08,04,13,59,22.30
2013,08,04,14,00,22.30
2013,08,04,14,01,22.40
2013,08,04,14,02,22.40
2013,08,04,14,03,22.40
2013,08,04,14,04,22.40
2013,08,04,14,05,22.40
2013,08,04,14,06,22.40
2013,08,04,14,07,22.40
2013,08,04,14,08,22.40
2013,08,04,14,09,22.50
2013,08,04,14,10,22.50
2013,08,04,14,11,22.50
2013,08,04,14,12,22.50
2013,08,04,14,13,22.40
2013,08,04,14,14,22.40
2013,08,04,14,15,22.30
2013,08,04,14,16,22.30
2013,08,04,14,17,22.20
2013,08,04,14,18,22.20
2013,08,04,14,19,22.20
2013,08,04,14,20,22.20
2013,08,04,14,21,22.30
2013,08,04,14,22,22.30
2013,08,04,14,23,22.30
2013,08,04,14,24,22.20
2013,08,04,14,25,22.20
2013,08,04,14,26,22.20
2013,08,04,14,27,22.20
2013,08,04,14,28,22.20
2013,08,04,14,29,22.20
2013,08,04,14,30,22.30
2013,08,04,14,31,22.30
2013,08,04,14,32,22.20
2013,08,04,14,33,22.20
2013,08,04,14,34,22.20
2013,08,04,14,35,22.30
2013,08,04,14,36,22.30
2013,08,04,14,37,22.40
2013,08,04,14,38,22.40
2013,08,04,14,39,22.50
2013,08,04,14,40,22.60
2013,08,04,14,41,22.70
2013,08,04,14,42,22.70
2013,08,04,14,43,22.80
2013,08,04,14,44,22.80
2013,08,04,14,45,22.80
2013,08,04,14,46,22.80
2013,08,04,14,47,22.70
2013,08,04,14,48,22.70
2013,08,04,14,49,22.70
2013,08,04,14,50,22.70
2013,08,04,14,51,22.60
2013,08,04,14,52,22.60
2013,08,04,14,53,22.70
2013,08,04,14,54,22.70
2013,08,04,14,55,22.70
2013,08,04,14,56,22.70
2013,08,04,14,57,22.70
2013,08,04,14,58,22.70
2013,08,04,14,59,22.70
2013,08,04,15,00,22.80
2013,08,04,15,01,22.90
2013,08,04,15,02,22.90
2013,08,04,15,03,22.90
2013,08,04,15,04,23.00
2013,08,04,15,05,23.00
2013,08,04,15,06,23.10
2013,08,04,15,07,23.20
2013,08,04,15,08,23.30
2013,08,04,15,09,23.40
2013,08,04,15,10,23.50
2013,08,04,15,11,23.50
2013,08,04,15,12,23.40
2013,08,04,15,13,23.40
2013,08,04,15,14,23.30
2013,08,04,15,15,23.30
2013,08,04,15,16,23.20
2013,08,04,15,17,23.20
2013,08,04,15,18,23.20
2013,08,04,15,19,23.20
2013,08,04,15,20,23.30
2013,08,04,15,21,23.30
2013,08,04,15,22,23.30
2013,08,04,15,23,23.30
2013,08,04,15,24,23.30
2013,08,04,15,25,23.30
2013,08,04,15,26,23.30
2013,08,04,15,27,23.20
2013,08,04,15,28,23.20
2013,08,04,15,29,23.20
2013,08,04,15,30,23.20
2013,08,04,15,31,23.20
2013,08,04,15,32,23.20
2013,08,04,15,33,23.20
2013,08,04,15,34,23.10
2013,08,04,15,35,23.10
2013,08,04,15,36,23.10
2013,08,04,15,37,23.10
2013,08,04,15,38,23.00
2013,08,04,15,39,22.90
2013,08,04,15,40,22.90
2013,08,04,15,41,22.90
2013,08,04,15,42,22.90
2013,08,04,15,43,22.90
2013,08,04,15,44,22.90
2013,08,04,15,45,22.90
2013,08,04,15,46,23.00
2013,08,04,15,47,23.00
2013,08,04,15,48,23.10
2013,08,04,15,49,23.10
2013,08,04,15,50,23.00
2013,08,04,15,51,22.90
2013,08,04,15,52,22.90
2013,08,04,15,53,22.90
2013,08,04,15,54,22.90
2013,08,04,15,55,23.00
2013,08,04,15,56,22.90
2013,08,04,15,57,22.90
2013,08,04,15,58,22.80
2013,08,04,15,59,22.70
2013,08,04,16,00,22.70
2013,08,04,16,01,22.70
2013,08,04,16,02,22.70
2013,08,04,16,03,22.70
2013,08,04,16,04,22.60
2013,08,04,16,05,22.60
2013,08,04,16,06,22.60
2013,08,04,16,07,22.60
2013,08,04,16,08,22.60
2013,08,04,16,09,22.60
2013,08,04,16,10,22.70
2013,08,04,16,11,22.70
2013,08,04,16,12,22.70
2013,08,04,16,13,22.70
2013,08,04,16,14,22.70
2013,08,04,16,15,22.80
2013,08,04,16,16,22.90
2013,08,04,16,17,23.00
2013,08,04,16,18,23.10
2013,08,04,16,19,23.20
2013,08,04,16,20,23.30
2013,08,04,16,21,23.40
2013,08,04,16,22,23.40
2013,08,04,16,23,23.30
2013,08,04,16,24,23.30
2013,08,04,16,25,23.20
2013,08,04,16,26,23.10
2013,08,04,16,27,23.10
2013,08,04,16,28,23.10
2013,08,04,16,29,23.10
2013,08,04,16,30,23.20
2013,08,04,16,31,23.20
2013,08,04,16,32,23.30
2013,08,04,16,33,23.30
2013,08,04,16,34,23.40
2013,08,04,16,35,23.40
2013,08,04,16,36,23.50
2013,08,04,16,37,23.60
2013,08,04,16,38,23.60
2013,08,04,16,39,23.60
2013,08,04,16,40,23.60
2013,08,04,16,41,23.60
2013,08,04,16,42,23.60
2013,08,04,16,43,23.60
2013,08,04,16,44,23.50
2013,08,04,16,45,23.50
2013,08,04,16,46,23.40
2013,08,04,16,47,23.40
2013,08,04,16,48,23.40
2013,08,04,16,49,23.40
2013,08,04,16,50,23.40
2013,08,04,16,51,23.40
2013,08,04,16,52,23.50
2013,08,04,16,53,23.50
2013,08,04,16,54,23.50
2013,08,04,16,55,23.50
2013,08,04,16,56,23.40
2013,08,04,16,57,23.40
2013,08,04,16,58,23.50
2013,08,04,16,59,23.50
2013,08,04,17,00,23.60
2013,08,04,17,01,23.60
2013,08,04,17,02,23.60
2013,08,04,17,03,23.60
2013,08,04,17,04,23.60
2013,08,04,17,05,23.50
2013,08,04,17,06,23.50
2013,08,04,17,07,23.50
2013,08,04,17,08,23.40
2013,08,04,17,09,23.30
2013,08,04,17,10,23.30
2013,08,04,17,11,23.30
2013,08,04,17,12,23.30
2013,08,04,17,13,23.30
2013,08,04,17,14,23.40
2013,08,04,17,15,23.50
2013,08,04,17,16,23.60
2013,08,04,17,17,23.60
2013,08,04,17,18,23.70
2013,08,04,17,19,23.70